Regional Weather Roundup
Issued by NWS

Home | Current Version | Previous Version | Text Only | Print | Product List | Glossary Off
Versions: 1 2 3 4 5 6 7 8 9 10 11 12 13 14 15 16 17 18 19 20 21 22 23 24 25 26 27 28 29 30 31 32 33 34 35 36 37 38 39 40 41 42 43 44 45

000
ASUS45 KBOU 192110
RWRCO

WEATHER ROUNDUP FOR COLORADO
NATIONAL WEATHER SERVICE PUEBLO CO
300 PM MDT THU APR 19 2018

NOTE: "FAIR" INDICATES FEW OR NO CLOUDS BELOW 12000 FEET WITH NO
SIGNIFICANT WEATHER AND/OR OBSTRUCTIONS TO VISIBILITY.

COZ001>005-013-030-031-192200-
...NORTHWEST COLORADO...

CITY           SKY/WX    TMP DP  RH WIND       PRES   REMARKS
CRAIG          FAIR      67  12  12 E9        29.88F
HAYDEN         FAIR      65   7  10 E5        29.92F
MEEKER         FAIR      66   8  10 S9        29.87F
RABBIT EARS PA NOT AVBL
STEAMBOAT SPGS FAIR      64   8  11 S15G24    29.92F
WALDEN         FAIR      61  -2   8 SW10G21   30.02F
$$

COZ006>008-011-192200-
...WEST CENTRAL VALLEYS...

CITY           SKY/WX    TMP DP  RH WIND       PRES   REMARKS
GRAND JUNCTION FAIR      69  13  11 CALM      29.80F
MONTROSE       FAIR      71  -3   5 S17G28    29.84F
EAGLE          FAIR      67   5   8 CALM      29.91F
RIFLE          FAIR      71   4   7 SW15G24   29.82F
DELTA          NOT AVBL
NUCLA          FAIR      70   7   8 S24G32    29.87F HAZE
$$

COZ017>023-064>068-192200-
...SOUTHWEST COLORADO...

CITY           SKY/WX    TMP DP  RH WIND       PRES   REMARKS
DURANGO        FAIR      66  11  11 S22G31    29.98F
CORTEZ         PTSUNNY   67   7   9 SE22G33   29.85F
PAGOSA SPRINGS PTSUNNY   62   3   9 S15G22    30.06F
TELLURIDE      FAIR      56   7  14 S16G28    30.03F
WOLF CREEK PAS PTSUNNY   41  10  28 S23G39    30.26F
$$

COZ009-010-012-014-032>034-037-058>063-192200-
...CENTRAL COLORADO...

CITY           SKY/WX    TMP DP  RH WIND       PRES   REMARKS
ASPEN          FAIR      63   5  10 S14G21    29.96F
BUENA VISTA    FAIR      59   6  11 SE17G26   30.05F
COPPER MTN     NOT AVBL
BERTHOUD PASS  FAIR      32  21  64 SE23G37   30.26F WCI  19
COTTONWOOD PAS FAIR      55   3  12 SE15G22   30.14F
GUNNISON       FAIR      62   6  11 S15G22    29.98F
KREMMLING      FAIR      66  -6   5 E7        29.98F
LEADVILLE      FAIR      50   9  19 S15G26    30.10F
MONARCH PASS   FAIR      41  10  28 SW22G33   30.33F
SALIDA         FAIR      63   8  11 SE24G32   30.10F
SUNLIGHT       FAIR      43   7  22 S7        30.14F
WILKERSON PASS FAIR      45   3  18 SW10G22   30.26F
$$

COZ069>075-192200-
...SAN LUIS VALLEY/SANGRE DE CRISTO MOUNTAINS...

CITY           SKY/WX    TMP DP  RH WIND       PRES   REMARKS
ALAMOSA        FAIR      66  11  11 S25G40    30.04F
DEL NORTE      FAIR      64  11  13 SW7G23    30.04F
LA VETA PASS   FAIR      57  12  17 S17G37    30.31F
SAGUACHE       NOT AVBL
$$

COZ035-036-038>040-192200-
...NORTHERN COLORADO FRONT RANGE...

CITY           SKY/WX    TMP DP  RH WIND       PRES   REMARKS
DENVER INTL AP FAIR      66  16  14 SE23G38   30.04F
DMNS CITY PARK NOT AVBL
AURORA         PTSUNNY   65  14  14 SE16G26   30.06F
FRONT RANGE AP PTSUNNY   68  16  13 SE26G35   30.07F
ERIE MUNI ARPT FAIR      62  16  17 NW6       30.11F
BOULDER MUN AP FAIR      59  19  21 W3        30.07F
CENTENNIAL     PTSUNNY   63  18  17 S25G40    30.05F
BROOMFIELD     PTSUNNY   59  18  20 NW7       30.08F
LOVELAND       FAIR      61  20  20 SW5       30.06F
LONGMONT       FAIR      64  19  17 NW5       30.08F
$$

COZ041-046-047-076>085-087-088-192200-
...PIKES PEAK/PALMER DIVIDE AND SOUTHERN FOOTHILLS...

CITY           SKY/WX    TMP DP  RH WIND       PRES   REMARKS
COLO. SPRINGS  FAIR      61  14  16 S13G23    30.13F
A. F. ACADEMY  FAIR      58  12  16 SE16G28   30.13F
SCHRIEVER AFB  NOT AVBL
CHEYENNE MTN   NOT AVBL
ELLICOTT         N/A    N/A N/A N/A S31G38    30.10F
FALCON         FAIR      60  10  13 S22G28    30.15F
FORT CARSON    FAIR      60  12  15 SE6       30.10F
LIMON          FAIR      64  14  14 S24G41    30.13F
MONUMENT HILL  FAIR      55  14  19 S29G38    30.14F
CANON CITY     FAIR      64  18  16 E12G18    30.07F
WALSENBURG     FAIR      70  18  13 S26G35    30.04F
TRINIDAD       FAIR      66  13  12 S32G44    30.08F
$$

COZ042>045-048>051-090-091-192200-
...NORTHEAST COLORADO...

CITY           SKY/WX    TMP DP  RH WIND       PRES   REMARKS
GREELEY ARPT   NOT AVBL
AKRON          FAIR      61  26  26 S29G47    30.16F
BURLINGTON     FAIR      61  25  25 S29G43    30.21F
WRAY           FAIR      63  27  25 SE23G31   30.22F
YUMA           NOT AVBL
STERLING       NOT AVBL
HOLYOKE        FAIR      63  28  27 S21G35    30.21F
FORT MORGAN    FAIR      65  15  14 SE24G36   30.12F
$$

COZ086-089-092>099-192200-
...SOUTHEAST COLORADO...

CITY           SKY/WX    TMP DP  RH WIND       PRES   REMARKS
PUEBLO         FAIR      73  16  11 SE18G30   30.03F
LA JUNTA       FAIR      71  13  10 S23G35    30.09F
LAMAR          FAIR      69  21  16 SE26G40   30.15F
SPRINGFIELD      N/A     65  21  18 S33G44    30.19F
$$





USA.gov is the U.S. government's official web portal to all federal, state and local government web resources and services.